Wind_Speed
35 36 32 29 28 27 27 26 24 23 20 18 17 17 16 16 15 15 14 13 13 13 13 13 12 13 13 13 12 12 12 12 11 10 11 11 10 8 7 9 8 9 11
43 39 34 31 29 28 27 26 24 22 21 19 18 17 17 15 15 14 13 12 12 12 12 11 11 12 13 13 12 12 11 10 9 10 7 7 10 8 6 5 5 7 7
39 40 35 32 29 28 26 25 24 22 21 19 18 17 16 15 15 14 13 13 12 12 11 10 10 11 12 13 13 13 9 7 7 7 7 6 8 8 6 4 5 6 8
38 37 34 32 30 28 26 25 24 22 20 19 17 16 16 15 15 14 13 12 10 9 9 9 9 10 11 12 13 14 9 9 11 8 3 3 9 10 9 4 3 5 7
34 34 32 31 30 28 26 25 24 23 20 19 18 17 16 16 15 14 13 13 11 6 6 6 7 9 11 13 13 14 10 8 7 6 1 4 8 10 5 4 5 5 4
32 33 33 32 30 28 26 25 24 23 21 19 18 17 16 16 15 15 13 11 8 6 5 6 7 10 12 15 14 12 10 10 7 4 3 5 8 8 6 7 7 5 4
32 33 34 32 30 28 26 25 24 24 22 20 18 17 16 15 14 14 13 10 9 7 7 8 8 10 14 17 15 13 10 8 7 5 3 5 7 6 7 7 7 7 6
28 32 35 33 31 29 27 26 24 24 23 21 20 18 17 16 15 14 12 11 10 9 9 9 11 12 14 16 15 14 11 8 7 4 3 6 6 8 8 7 6 9 8
25 32 36 35 32 29 28 26 25 24 23 22 20 20 18 17 16 14 13 13 12 11 11 11 10 11 13 15 16 12 11 8 5 3 5 6 7 6 5 5 5 7 6
22 33 36 35 34 32 29 27 26 26 25 22 22 20 19 17 17 16 15 14 13 13 11 11 11 12 15 16 15 13 9 7 5 4 6 5 5 4 6 6 5 6 5
25 31 37 36 35 33 31 29 29 27 27 25 22 19 20 19 19 18 17 16 15 14 12 11 11 13 16 16 15 13 10 7 5 4 5 4 4 6 8 7 8 5 7
32 32 37 38 37 35 34 33 31 30 28 27 25 22 20 20 20 19 18 18 16 14 13 13 14 14 16 14 15 13 11 9 5 4 3 2 4 6 6 5 6 7 9
34 33 35 38 39 37 37 36 34 32 31 28 26 23 23 23 23 22 22 20 18 16 15 15 15 15 15 14 14 13 11 9 6 4 2 2 3 3 4 6 6 7 8
39 36 36 38 39 40 39 38 36 34 33 31 29 26 27 27 25 24 23 21 19 17 17 16 16 16 16 14 13 12 11 9 6 3 2 1 1 2 5 5 5 6 7
40 40 39 40 40 41 41 39 38 37 36 34 31 30 30 28 26 26 25 23 21 20 19 18 17 16 16 15 13 12 10 9 6 3 2 1 2 4 7 8 4 6 6
41 42 41 42 42 41 41 41 41 40 38 36 34 33 32 29 27 28 27 25 23 21 20 19 17 16 17 15 15 14 12 9 7 5 3 2 3 4 6 4 2 4 5
44 41 43 44 44 43 41 42 44 42 41 39 38 37 34 32 30 29 28 27 25 23 21 21 18 18 18 17 16 15 13 10 8 6 4 4 4 5 4 2 1 2 4
47 45 41 43 45 43 44 42 45 44 44 42 41 39 38 35 32 30 30 29 26 26 23 21 20 20 18 17 18 16 14 11 9 7 6 4 4 4 4 3 2 1 2
49 46 46 42 45 46 45 46 44 46 45 45 43 42 41 38 35 33 33 31 29 28 25 24 22 21 20 19 18 15 14 12 9 8 6 5 5 5 3 3 3 1 1
51 49 46 45 46 46 46 45 46 47 45 46 45 45 44 42 38 36 35 34 31 30 28 27 25 23 20 21 19 17 14 11 10 9 6 6 5 5 4 3 3 2 1
53 52 50 50 47 47 50 51 52 51 49 47 45 43 42 41 40 40 39 37 35 34 32 30 28 26 25 24 22 19 14 11 11 10 8 8 6 5 5 4 4 4 2
52 54 56 55 52 47 50 54 53 52 51 47 46 44 41 41 41 42 41 40 38 37 34 34 34 32 29 29 28 24 16 15 15 13 13 11 9 8 7 6 6 6 5
53 56 57 57 55 51 50 52 52 53 50 47 46 45 45 42 40 42 41 40 39 39 38 37 36 36 35 35 32 20 11 11 23 19 17 14 12 10 10 9 8 7 6
41 52 57 58 57 54 50 51 53 54 57 56 53 49 47 42 39 39 40 40 39 39 38 37 36 37 37 38 38 35 14 12 13 15 22 21 17 14 12 10 9 6 7
12 33 47 53 51 53 51 50 53 55 53 52 51 49 45 42 39 38 40 42 41 40 38 37 37 38 39 39 40 38 31 15 16 13 21 29 25 18 15 12 10 6 7
33 10 32 46 52 50 50 49 48 52 52 52 49 46 46 43 40 38 39 41 41 40 38 37 36 35 38 37 38 37 36 28 22 18 14 29 28 22 18 14 12 9 8
Wind_Direction
188 188 174 174 169 166 165 165 162 157 155 153 149 148 148 147 144 140 137 132 126 122 118 116 115 115 115 113 115 115 111 104 93 84 67 59 54 54 58 49 39 37 40
176 185 173 174 171 167 165 163 160 156 154 154 153 152 150 149 145 142 137 132 129 125 121 122 125 124 121 117 119 115 116 117 99 95 86 55 53 48 56 52 40 42 37
176 178 173 174 171 168 165 162 159 158 156 156 155 153 153 152 150 145 137 133 133 129 129 133 130 125 123 124 125 122 132 126 103 110 98 58 32 21 12 32 36 29 28
176 176 174 175 173 169 166 164 161 161 160 160 160 159 159 157 154 150 145 138 134 138 134 133 130 131 126 127 132 141 139 117 132 130 152 328 327 328 331 342 21 30 45
178 178 177 178 175 171 168 167 165 164 165 165 166 165 164 163 163 160 158 156 163 167 129 132 136 133 129 132 144 156 155 147 140 144 191 313 325 340 8 21 23 28 37
182 183 181 181 178 175 172 171 170 168 169 170 172 171 172 170 168 167 168 173 178 170 154 148 144 139 135 138 156 161 154 155 182 203 278 319 322 344 30 44 47 41 44
187 187 184 183 182 178 176 175 175 173 174 174 178 180 180 175 171 173 178 182 181 177 164 156 154 143 138 149 166 170 173 177 193 215 270 320 339 15 39 46 47 51 46
191 191 188 186 185 183 181 180 181 180 180 181 182 186 185 184 182 183 182 183 185 176 168 163 152 145 142 162 176 183 190 206 213 246 329 341 15 29 36 39 36 58 40
196 198 191 188 188 188 186 186 186 186 186 187 187 187 183 184 186 186 188 187 183 176 168 165 163 157 150 176 181 202 199 203 228 285 324 343 28 33 42 41 47 60 15
197 202 196 193 191 190 190 191 191 192 192 192 193 190 185 186 188 187 188 185 178 176 179 177 170 162 158 185 182 194 206 209 255 309 332 358 19 50 56 43 37 56 13
198 203 200 199 196 193 194 194 195 198 199 198 192 187 189 190 190 190 188 184 181 183 185 188 185 172 170 190 190 197 214 223 246 291 324 352 7 39 47 41 46 20 14
196 198 204 204 202 198 198 199 201 201 199 195 198 194 196 196 193 193 189 187 189 192 189 187 181 177 183 200 199 200 216 231 246 285 304 315 23 35 30 36 38 12 17
207 199 202 208 209 206 204 204 206 202 198 201 205 203 203 201 196 193 192 192 195 196 195 191 188 183 184 201 206 211 219 230 244 271 290 357 23 28 65 67 66 22 29
208 208 208 210 211 213 212 211 207 204 203 205 207 209 211 206 200 197 196 196 199 200 196 192 192 189 192 200 211 216 215 219 223 221 255 226 198 95 96 75 64 31 41
211 210 212 213 214 216 216 217 210 208 209 211 211 213 214 211 206 200 199 199 201 200 197 195 196 198 196 203 214 216 217 217 219 231 225 188 144 127 118 106 63 45 43
221 219 219 220 217 219 221 224 213 212 214 215 215 218 218 213 210 204 204 202 203 203 200 199 200 202 199 208 213 216 221 219 226 222 211 189 151 151 158 177 32 32 32
225 225 224 223 218 221 227 226 218 218 217 216 216 218 219 215 211 207 206 206 205 204 201 199 197 199 200 200 212 216 221 225 220 222 213 188 167 172 182 189 283 4 20
225 224 224 225 221 222 225 225 224 224 223 219 218 218 220 218 214 213 213 212 207 209 206 206 205 201 202 203 205 207 212 223 230 226 216 200 185 180 184 192 221 312 348
229 228 225 224 225 222 222 223 226 227 227 224 221 219 220 219 218 217 219 216 212 211 210 208 206 208 200 199 202 204 209 216 229 230 227 226 211 205 199 212 253 284 320
229 230 229 224 224 223 223 222 224 226 226 230 225 221 219 219 219 221 220 219 217 215 213 211 210 206 208 202 193 186 198 215 218 213 238 230 228 217 214 227 265 297 101
230 227 226 221 223 221 221 221 223 224 222 224 224 223 220 223 221 221 219 219 220 221 218 217 211 209 197 200 190 182 191 207 211 221 241 234 225 232 244 238 252 279 316
233 232 227 223 220 222 222 224 224 221 222 224 222 220 223 226 224 222 219 220 221 221 218 218 213 201 202 203 197 185 175 194 210 227 230 217 224 240 242 248 263 273 285
237 233 229 228 222 221 219 219 221 221 217 216 219 222 222 225 226 224 222 222 222 222 221 218 214 214 205 204 212 194 174 202 200 210 222 228 233 240 227 238 249 261 273
241 236 235 226 224 219 214 215 218 219 213 217 221 222 223 222 224 226 226 225 224 225 225 224 219 218 216 211 207 213 215 196 173 185 208 220 231 239 233 237 238 245 259
277 241 234 229 224 221 216 219 220 219 223 224 223 225 227 224 224 225 229 227 224 226 228 226 222 219 222 223 217 213 220 212 197 185 196 205 215 224 235 237 238 243 260
6 259 229 228 227 225 223 222 224 221 218 223 225 227 226 222 224 226 228 227 225 226 228 228 225 224 223 226 226 227 226 219 214 207 205 206 208 209 218 224 238 261 268
Height
1499 1504 1506 1510 1509 1510 1514 1517 1520 1521 1524 1526 1528 1530 1532 1534 1535 1536 1537 1539 1540 1540 1541 1542 1543 1543 1544 1544 1544 1544 1544 1544 1544 1544 1543 1543 1542 1541 1541 1541 1541 1540 1539
1486 1501 1503 1508 1509 1510 1513 1516 1519 1520 1522 1525 1527 1529 1531 1534 1535 1536 1538 1539 1540 1541 1542 1543 1544 1544 1544 1545 1545 1545 1544 1544 1544 1544 1544 1544 1542 1542 1541 1541 1541 1540 1540
1493 1499 1502 1506 1509 1510 1512 1515 1518 1520 1521 1524 1526 1529 1531 1533 1535 1537 1538 1539 1541 1542 1542 1543 1544 1544 1545 1545 1546 1546 1544 1544 1545 1545 1544 1544 1543 1543 1542 1542 1541 1541 1540
1495 1500 1502 1505 1507 1509 1511 1514 1516 1519 1521 1523 1525 1528 1530 1532 1535 1537 1538 1539 1540 1541 1542 1543 1544 1545 1545 1546 1546 1545 1545 1545 1545 1545 1545 1544 1544 1543 1543 1542 1541 1541 1541
1495 1499 1503 1506 1507 1509 1510 1513 1515 1518 1521 1523 1525 1527 1529 1531 1534 1536 1537 1539 1540 1541 1542 1543 1544 1545 1546 1546 1544 1545 1545 1545 1545 1545 1545 1545 1544 1543 1543 1542 1541 1541 1541
1495 1498 1501 1506 1507 1509 1510 1512 1514 1516 1520 1522 1525 1526 1528 1530 1533 1534 1536 1538 1540 1541 1541 1543 1544 1545 1546 1546 1544 1544 1545 1546 1546 1546 1546 1545 1545 1544 1543 1542 1542 1541 1540
1494 1497 1499 1503 1507 1508 1509 1511 1514 1516 1518 1521 1524 1526 1528 1530 1532 1533 1535 1537 1539 1540 1541 1543 1544 1546 1546 1546 1544 1544 1545 1546 1547 1547 1547 1546 1544 1544 1543 1542 1542 1540 1539
1492 1495 1498 1502 1505 1506 1508 1510 1513 1515 1518 1519 1522 1525 1527 1529 1531 1532 1534 1535 1538 1539 1540 1542 1544 1546 1546 1545 1544 1545 1546 1546 1547 1547 1546 1545 1544 1543 1542 1541 1541 1540 1538
1491 1493 1497 1499 1502 1505 1507 1509 1511 1514 1516 1518 1520 1522 1525 1527 1529 1531 1533 1534 1536 1538 1540 1541 1544 1546 1547 1544 1544 1543 1545 1546 1546 1547 1546 1545 1544 1544 1543 1542 1542 1540 1539
1488 1492 1495 1499 1500 1502 1505 1508 1510 1512 1514 1517 1519 1520 1523 1526 1528 1530 1532 1533 1535 1537 1539 1541 1542 1544 1545 1542 1544 1545 1544 1546 1546 1546 1545 1545 1545 1544 1543 1542 1541 1541 1539
1486 1489 1493 1496 1499 1500 1503 1506 1508 1511 1513 1514 1517 1519 1520 1522 1525 1528 1530 1532 1534 1535 1537 1539 1541 1543 1543 1542 1544 1546 1545 1546 1546 1546 1546 1545 1545 1544 1543 1542 1542 1540 1539
1479 1483 1488 1493 1496 1497 1499 1503 1505 1508 1510 1512 1515 1517 1519 1521 1523 1526 1528 1530 1532 1534 1535 1537 1539 1541 1542 1543 1543 1545 1546 1546 1545 1545 1545 1546 1545 1544 1543 1543 1542 1541 1540
1475 1480 1483 1488 1492 1495 1495 1499 1501 1504 1507 1511 1512 1515 1517 1519 1520 1523 1525 1527 1530 1531 1533 1535 1537 1539 1540 1541 1541 1543 1544 1544 1545 1545 1545 1544 1545 1545 1544 1543 1542 1541 1541
1472 1477 1480 1484 1488 1491 1493 1495 1497 1500 1504 1507 1509 1513 1514 1516 1518 1520 1523 1525 1527 1529 1531 1533 1535 1537 1538 1539 1540 1541 1542 1542 1543 1544 1544 1545 1545 1544 1544 1543 1542 1542 1542
1472 1474 1476 1478 1483 1486 1490 1492 1494 1496 1499 1503 1505 1508 1510 1514 1516 1518 1521 1523 1525 1526 1529 1531 1533 1535 1536 1537 1537 1539 1540 1542 1542 1543 1543 1543 1544 1544 1544 1544 1543 1543 1542
1466 1468 1471 1474 1477 1480 1484 1488 1491 1493 1496 1499 1502 1504 1508 1511 1514 1516 1518 1520 1522 1524 1527 1529 1531 1532 1533 1536 1536 1537 1539 1540 1541 1542 1542 1543 1543 1543 1544 1543 1542 1543 1543
1452 1457 1460 1464 1470 1473 1476 1481 1485 1488 1490 1493 1496 1499 1503 1507 1511 1513 1515 1518 1520 1522 1524 1526 1527 1529 1531 1533 1535 1536 1537 1538 1540 1541 1541 1541 1542 1542 1542 1543 1542 1542 1543
1449 1450 1452 1456 1461 1465 1469 1473 1478 1482 1484 1487 1490 1494 1497 1501 1506 1509 1512 1514 1517 1519 1521 1523 1524 1526 1528 1530 1532 1533 1535 1536 1538 1540 1541 1541 1541 1541 1542 1542 1542 1542 1542
1441 1444 1445 1447 1449 1454 1459 1466 1471 1474 1478 1480 1485 1487 1490 1496 1500 1504 1508 1511 1513 1515 1517 1518 1521 1524 1525 1526 1529 1532 1534 1534 1535 1537 1538 1540 1540 1540 1540 1540 1541 1541 1541
1432 1435 1440 1442 1445 1448 1452 1459 1463 1466 1472 1474 1479 1481 1486 1487 1494 1499 1503 1507 1510 1512 1515 1516 1517 1519 1524 1524 1526 1530 1532 1534 1534 1535 1537 1538 1538 1539 1539 1539 1539 1540 1540
1422 1426 1428 1432 1436 1441 1443 1445 1450 1453 1459 1464 1469 1476 1481 1484 1488 1491 1496 1501 1505 1507 1509 1512 1514 1515 1519 1521 1523 1527 1530 1532 1534 1534 1534 1536 1536 1537 1538 1538 1538 1539 1538
1411 1415 1418 1419 1425 1430 1432 1435 1442 1446 1451 1458 1462 1467 1474 1477 1481 1485 1490 1494 1499 1503 1506 1508 1509 1510 1514 1516 1517 1522 1527 1531 1530 1531 1533 1535 1535 1536 1536 1537 1537 1537 1537
1411 1408 1411 1417 1414 1416 1424 1433 1438 1442 1447 1451 1455 1461 1464 1470 1476 1479 1484 1489 1493 1497 1500 1503 1505 1506 1506 1511 1513 1515 1519 1520 1524 1528 1529 1531 1531 1533 1535 1535 1536 1536 1536
1412 1409 1412 1407 1413 1415 1418 1422 1427 1429 1435 1440 1446 1452 1457 1464 1470 1475 1478 1482 1488 1492 1496 1499 1502 1504 1504 1505 1509 1511 1512 1511 1516 1523 1527 1528 1530 1530 1531 1532 1534 1535 1534
1407 1408 1410 1412 1413 1413 1411 1415 1420 1427 1431 1436 1441 1445 1452 1457 1463 1468 1472 1475 1480 1484 1489 1494 1497 1501 1502 1503 1504 1505 1510 1511 1511 1512 1517 1522 1526 1528 1529 1530 1531 1532 1532
1411 1409 1405 1405 1405 1407 1407 1407 1410 1415 1423 1426 1433 1438 1442 1450 1456 1461 1466 1470 1474 1478 1483 1488 1492 1497 1499 1501 1503 1504 1506 1508 1508 1509 1512 1516 1521 1524 1527 1529 1530 1530 1529